STARLINK-32264, 61642

Orbit data source: Space-Track

STARLINK-32264, 61642 is a payload satellite owned by SpaceX/Seattle (US) in LEO that was launched on Wed, 23 Oct 2024 UTC via an FALCON 9 launch vehicle from the Air Force Eastern Test Range (AFETR). Payload-class satellites include a variety of spacecraft equipped with specific instruments for various scientific and technological missions. These include communications satellites like Starlink; space stations such as the ISS; scientific satellites like the Hubble; Earth observation satellites from companies like Planet Labs, Umbra, and HawkEye 360; GPS; miniature CubeSats for education and research; and military/defense satellites.

Loading next visibility...
Identifier
61642, 2024-191X
Orbit
LEO
Last TLE update
5 hours ago
Origin
Manufacturer
SpaceX/Seattle
Mission
Operational Commercial Communications
Bus & Motor
STARLINK V2M, Unknown motor
Mass
730 kg wet, ~700 kg dry
Launch date (UTC)
2024-10-23 (7 months ago)
Launch vehicle
FALCON 9
Launch site
Air Force Eastern Test Range (AFETR)
Object type
Payload
Rocket body
Debris
Shape & HBR
Box + 2 Pan, 29 m
Radar Cross Section
36.964 m², Large (>1 m²)

Expand to show TLE details & history

TLE from 5 hours ago
0 STARLINK-32264
1 61642U 24191X   25133.10846674  .00003939  00000-0  15264-3 0  9991
2 61642  43.0061  55.7299 0000944 288.6027  71.4722 15.27568117 32227
Epoch: 2025-05-13T02:36Z
Definitive object data (Epoch: 2025-05-13T02:36:11.526Z)
Latitude
-0.00002°
Longitude
145.56992°
Altitude
482.655 km
Speed
7.626 km/s
True Right ascension
03h 42m 55s
True Declination
0° 00' 00"
Sunlit
Object was in daylight at TLE epoch
Visualization TLE readout
Latitude
37.36597°
Longitude
-161.09576°
Altitude
485.44 km
Speed
7.628 km/s
Apparent Right ascension
05h 43m 42s
Apparent Declination
0° 26' 49"
Sunlit
Object is in daylight
Visualization observer readout
Local Sidereal Time
15:59:46
Azimuth
323.068° NNW
Elevation
-43.192°
Doppler factor
1
Orbital elements
Apogee altitude
485.677 km
Perigee altitude
484.381 km
Semi-major axis
6,863.166 km
Eccentricity
0.0000944
Inclination
43.0061°
RAAN
55.7299°
Arg. of periapsis
288.6027°
True anomaly
71.48246°
Mean anomaly
71.4722°
Eccentric anomaly
71.47733°
Mean motion
3.8173 °/min
BSTAR
0.00015264
Orbital period
94.31 mins
Loading maneuver chart data...
Loading SW <> Apogee altitude chart data...
Loading historical data...
Loading historical data...
Loading historical data...
Loading historical data...
Loading historical data...
Loading historical data...
Loading historical data...

STARLINK-32264 Visibility forecast

Observer location: undefined°, undefined°

Span
Click to sort rows by Start time (UTC) header in descending order
Start Az.
Max El. time (UTC)
Max El. Az.
Max El.
End time (UTC)
End Az.
5 mins2025-05-13 21:37:59.061Z195.184° SSW2025-05-13 21:39:59.061Z154.068° SSE23.404°2025-05-13 21:42:59.061Z93.104° ESE
5 mins2025-05-13 23:16:59.061Z256.57° W2025-05-13 23:18:59.061Z1.727° NNE44.751°2025-05-13 23:21:59.061Z70.809° E
5 mins2025-05-14 00:55:59.061Z292.516° NW2025-05-14 00:57:59.061Z353.126° N37.887°2025-05-14 01:00:59.061Z74.64° E
5 mins2025-05-14 02:34:59.061Z288.567° WNW2025-05-14 02:36:59.061Z292.75° NW44.243°2025-05-14 02:39:59.061Z108.495° ESE
4 mins2025-05-14 04:13:59.061Z254.867° W2025-05-14 04:15:59.061Z211.876° SW21.369°2025-05-14 04:17:59.061Z170.941° S
|